Regional Weather Roundup
Issued by NWS

Home | Current Version | Previous Version | Graphics & Text | Print | Product List | Glossary On
Versions: 1 2 3 4 5 6 7 8 9 10 11 12 13 14 15 16 17 18 19 20 21 22 23 24 25 26 27 28 29 30 31 32 33 34 35 36 37 38 39 40 41 42 43 44 45 46 47 48 49 50
000
ASUS45 KPSR 060610
RWRAZ

ARIZONA REGIONAL HOURLY WEATHER ROUNDUP
NATIONAL WEATHER SERVICE PHOENIX AZ
1100 PM MST THU MAR 05 2015

NOTE: FAIR INDICATES FEW OR NO CLOUDS BELOW 12,000 FEET WITH NO
SIGNIFICANT WEATHER AND/OR OBSTRUCTIONS TO VISIBILITY.

AZZ001>003-036-060700-
NORTHWEST ARIZONA

CITY           SKY/WX    TMP DP  RH WIND       PRES   REMARKS
BULLHEAD CITY  CLEAR     63  23  22 N18       30.26S
KINGMAN        CLEAR     41  28  60 E9        30.32S
6HR MIN TEMP:  40; 6HR MAX TEMP:  62;

$$

AZZ004>008-015-016-018-060700-
NORTH CENTRAL ARIZONA

CITY           SKY/WX    TMP DP  RH WIND       PRES   REMARKS
GRAND CANYON   CLEAR     19  15  84 CALM      30.40S
6HR MIN TEMP:  16; 6HR MAX TEMP:  48;

PRESCOTT       CLEAR     35  21  56 SW6       30.33S WCI  30
6HR MIN TEMP:  35; 6HR MAX TEMP:  59;

FLAGSTAFF      CLEAR     21  13  71 CALM      30.38F
6HR MIN TEMP:  21; 6HR MAX TEMP:  44;

PAYSON         CLEAR     43   7  22 NE6       30.33S
PAGE           CLEAR     39  25  57 CALM      30.39R
6HR MIN TEMP:  39; 6HR MAX TEMP:  51;

$$

AZZ009>014-017-060700-
NORTHEAST ARIZONA

CITY           SKY/WX    TMP DP  RH WIND       PRES   REMARKS
WINSLOW        CLEAR     27  19  72 W6        30.38R WCI  20
6HR MIN TEMP:  27; 6HR MAX TEMP:  54;

SAINT JOHNS    CLEAR     30  12  47 S5        30.35F WCI  25
6HR MIN TEMP:  28; 6HR MAX TEMP:  54;

WINDOW ROCK    CLEAR     27  18  69 CALM      30.40S
6HR MIN TEMP:  24; 6HR MAX TEMP:  51;

SHOW LOW       CLEAR     28  10  47 E5        30.39S WCI  23
$$

AZZ023-060700-
GREATER PHOENIX AREA

CITY           SKY/WX    TMP DP  RH WIND       PRES   REMARKS
PHOENIX        CLEAR     59  32  36 E6        30.17S
6HR MIN TEMP:  59; 6HR MAX TEMP:  74;

BUCKEYE        CLEAR     55  34  44 N13       30.18S
LUKE AFB       CLEAR     53  38  55 N9        30.17S
6HR MIN TEMP:  53; 6HR MAX TEMP:  73;

DEER VALLEY    CLEAR     56  27  32 NE7       30.19R
6HR MIN TEMP:  54; 6HR MAX TEMP:  74;

SCOTTSDALE     CLEAR     57  30  35 CALM      30.20S
6HR MIN TEMP:  57; 6HR MAX TEMP:  72;

MESA-GATEWAY   CLEAR     50  36  57 SE6       30.21R
$$

AZZ027-028-060700-
SOUTHWEST MARICOPA COUNTY AND PINAL COUNTY

CITY           SKY/WX    TMP DP  RH WIND       PRES   REMARKS
CASA GRANDE    CLEAR     54  27  35 NE6       30.19S
6HR MIN TEMP:  52; 6HR MAX TEMP:  70;

GILA BEND      FAIR      50  40  67 S5        30.16S
6HR MIN TEMP:  50; 6HR MAX TEMP:  73;

$$

AZZ503-504-507>509-060700-
SOUTHEAST ARIZONA

CITY           SKY/WX    TMP DP  RH WIND       PRES   REMARKS
TUCSON         CLEAR     54  24  31 SE9       30.22F
6HR MIN TEMP:  53; 6HR MAX TEMP:  69;

DAVIS-MONTHAN  CLEAR     53  21  28 E15G22    30.20S
6HR MIN TEMP:  53; 6HR MAX TEMP:  67;

NOGALES        CLEAR     47  20  34 NE13      30.18F
6HR MIN TEMP:  45; 6HR MAX TEMP:  65;

SIERRA VISTA   CLEAR     41  25  52 E13       30.25S
DOUGLAS        CLEAR     46  26  45 E15       30.27S
6HR MIN TEMP:  45; 6HR MAX TEMP:  57;

SAFFORD        CLEAR     49  21  33 E12       30.31R
6HR MIN TEMP:  49; 6HR MAX TEMP:  63;

$$

AZZ020-021-025-026-031-060700-
SOUTHWEST ARIZONA

CITY           SKY/WX    TMP DP  RH WIND       PRES   REMARKS
YUMA           CLEAR     60  30  32 CALM      30.16S
6HR MIN TEMP:  60; 6HR MAX TEMP:  77;

$$

CAZ031-033-041-043-047-048-061-060700-
SOUTHERN CALIFORNIA

CITY           SKY/WX    TMP DP  RH WIND       PRES   REMARKS
DOWNTOWN L.A.  CLEAR     59  33  37 CALM      30.16S
6HR MIN TEMP:  59; 6HR MAX TEMP:  73;

L.A. AIRPORT   CLEAR     60  35  39 CALM      30.17R
6HR MIN TEMP:  59; 6HR MAX TEMP:  68;

SAN DIEGO      CLEAR     63  27  25 NW5       30.16F
6HR MIN TEMP:  62; 6HR MAX TEMP:  74;

BURBANK        CLEAR     55  26  32 CALM      30.17S
6HR MIN TEMP:  55; 6HR MAX TEMP:  72;

ONTARIO        CLEAR     58  32  37 NE7       30.18S
6HR MIN TEMP:  55; 6HR MAX TEMP:  74;

RIVERSIDE      CLEAR     56  26  31 E5        30.20S
6HR MIN TEMP:  55; 6HR MAX TEMP:  78;

PALM SPRINGS   CLEAR     67  18  15 NW8       30.23S
6HR MIN TEMP:  64; 6HR MAX TEMP:  77;

EL CENTRO NAS  CLEAR     55  36  48 W8        30.18S
6HR MIN TEMP:  53; 6HR MAX TEMP:  75;

IMPERIAL       CLEAR     53  35  50 W7        30.18R
6HR MIN TEMP:  52; 6HR MAX TEMP:  75;

BLYTHE         CLEAR     57  36  45 N6        30.19S
6HR MIN TEMP:  57; 6HR MAX TEMP:  73;

NEEDLES        CLEAR     57  26  30 NW6       30.25S
6HR MIN TEMP:  57; 6HR MAX TEMP:  72;

$$

NVZ020-UTZ003-060700-
SOUTHERN NEVADA-UTAH

CITY           SKY/WX    TMP DP  RH WIND       PRES   REMARKS
LAS VEGAS      CLEAR     53  30  41 SW7       30.29S
6HR MIN TEMP:  53; 6HR MAX TEMP:  65;

SALT LAKE CITY PTCLDY    36  21  54 S7        30.42S WCI  30
6HR MIN TEMP:  36; 6HR MAX TEMP:  48;

$$

NMZ009-TXZ055-060700-
NEW MEXICO-WEST TEXAS

CITY           SKY/WX    TMP DP  RH WIND       PRES   REMARKS
ALBUQUERQUE    CLEAR     39  11  31 CALM      30.38S
6HR MIN TEMP:  39; 6HR MAX TEMP:  53;

EL PASO        CLEAR     38  21  50 CALM      30.38S
6HR MIN TEMP:  38; 6HR MAX TEMP:  49;

$$


........................KEY........................
SKY/WX - SKY CONDITION/WEATHER
TMP    - TEMPERATURE IN FAHRENHEIT
DP     - DEW POINT IN FAHRENHEIT
RH     - RELATIVE HUMIDITY IN PERCENT
WIND   - DIRECTION AND SPEED IN MILES PER HOUR (MPH)
VRB    - VARIABLE WIND DIRECTION
PRES   - MEAN SEA LEVEL PRESSURE IN INCHES OF MERCURY
         F - FALLING PRESSURE   R - RISING PRESSURE
         S - STEADY PRESSURE
VSB    - VISIBILITY IN MILES
HX     - HEAT INDEX IN FAHRENHEIT
WCI    - WIND CHILL INDEX IN FAHRENHEIT
TC     - TEMPERATURE IN CELSIUS WHICH IS ALSO KNOWN AS
         TEMPERATURE IN CENTIGRADE
AFB    - AIR FORCE BASE
         LUKE AFB IS LUKE AIR FORCE BASE
         DAVIS-MONTHAN IS DAVIS-MONTHAN AIR FORCE BASE
NAS    - NAVAL AIR STATION
         EL CENTRO NAS IS EL CENTRO NAVAL AIR STATION
N/A    - NOT AVAILABLE



USA.gov is the U.S. government's official web portal to all federal, state and local government web resources and services.